Flag for U.S.A. Weather past 2 weeks in Portsmouth, Virginia, U.S.A.

Now
49 °F

Mostly cloudy.


Feels Like: 45 °F
Forecast: 44 / 55 °F
Wind: 10 mph from East

Location: Norfolk Naval Air Station


UV Index: 0 (Low)

Visibility: 10 mi


Pressure: 30.35 "Hg

Humidity: 71%

Dew point: 40 °F

Location of PortsmouthLocation

Historic Weather in Portsmouth

°F

Portsmouth temperature yesterday

Maximum temperature yesterday: 52 °F (at 10:59 AM)
Minimum temperature yesterday: 43 °F (at 1:59 AM)
Average temperature yesterday: 47 °F

Past Weeks' High & Low Weather Summary

 TemperatureHumidityPressure
High84 °F (Apr 4, 5:59 PM)93% (Apr 4, 3:59 AM)30.62 "Hg (Apr 4, 3:59 AM)
Low37 °F (Apr 16, 4:59 AM)22% (Apr 4, 5:59 PM)29.57 "Hg (Apr 8, 9:59 AM)
Average60 °F61%30.07 "Hg
* Reported Apr 3 4:59 PM — Apr 18 4:59 PM, Portsmouth, Weather by CustomWeather, © 2014

Note: Actual official high and low records may vary slightly from our data, if they occured in-between our weather recording intervals... More about our weather records

Advertising

Historic Weather Conditions — Data for Previous 24 hours

 ConditionsComfort  
Time TempWeatherWind HumidityBarometerVisibility
4:59 PM
Apr 18
49 °FMostly cloudy.10 mph71%30.35 "Hg10 mi
3:59 PM50 °FMostly cloudy.8 mph66%30.37 "Hg10 mi
2:59 PM50 °FMostly cloudy.9 mph68%30.40 "Hg10 mi
1:59 PM51 °FMostly cloudy.10 mph66%30.43 "Hg10 mi
12:59 PM50 °FOvercast.12 mph66%30.44 "Hg10 mi
11:59 AM51 °FMostly cloudy.12 mph63%30.45 "Hg10 mi
10:59 AM49 °FOvercast.10 mph66%30.47 "Hg10 mi
9:59 AM47 °FOvercast.12 mph69%30.47 "Hg10 mi
8:59 AM45 °FOvercast.14 mph71%30.47 "Hg10 mi
7:59 AM44 °FMostly cloudy.15 mph73%30.47 "Hg10 mi
6:59 AM44 °FMostly cloudy.16 mph73%30.47 "Hg10 mi
5:59 AM44 °FOvercast.14 mph73%30.47 "Hg10 mi
4:59 AM44 °FOvercast.14 mph73%30.45 "Hg10 mi
3:59 AM44 °FOvercast.10 mph73%30.45 "Hg10 mi
2:59 AM45 °FOvercast.12 mph71%30.47 "Hg10 mi
1:59 AM45 °FOvercast.14 mph71%30.49 "Hg10 mi
12:59 AM45 °FOvercast.13 mph74%30.54 "Hg10 mi
11:59 PM
Apr 17
45 °FOvercast.16 mph71%30.55 "Hg10 mi
10:59 PM45 °FOvercast.15 mph71%30.56 "Hg10 mi
9:59 PM45 °FPassing clouds.15 mph71%30.55 "Hg10 mi
8:59 PM46 °FPassing clouds.17 mph71%30.54 "Hg10 mi
7:59 PM46 °FPartly sunny.16 mph71%30.55 "Hg10 mi
6:59 PM47 °FPartly sunny.21 mph71%30.55 "Hg10 mi
Weather by CustomWeather, © 2014

See weather overview